Location: Bruch
(44.2051°N, 0.4120°E)
Time: 04:40:19
(UTC+00:00)

CZ-4C R/B - Pass Details

Date: 29 November 2020
Orbit: 620 x 1382 km, 63.4° (Epoch: 24 January)

Event Time Altitude Azimuth Distance (km) Brightness Sun altitude
Exits shadow 05:11:09 23° 218° (SW) 1,504 3.2 -21.1°
Maximum altitude 05:14:18 86° 306° (NW) 781 1.9 -20.5°
Drops below altitude 10° 05:20:11 10° 37° (NE) 2,574 5.0 -19.5°
Sets 05:22:58 0° 38° (NE) 3,647 5.9 -19.0°
